• En España
  • Lista de países
  • Para 7 días
  • Temperatura del agua
  • Mapa Satelital
  • El tiempo en el mapa
  • Informadores
  • user-avatar
    Iniciar sesión

    Tiempo cada hora Bolshaya Krasavka

    Hoy, 16 Agosto, Jueves

    Tiempo Temperatura Precipitaciones Viento Presión Humedad
    00:00 +20°C° 0,1 mm 2 mps 741 mmHg 83%
    01:00 +19°C° 0,1 mm 2 mps 741 mmHg 86%
    02:00 +19°C° 0 mm 2 mps 741 mmHg 90%
    03:00 +18°C° 0 mm 2 mps 741 mmHg 91%
    04:00 +18°C° 0 mm 2 mps 741 mmHg 92%
    05:00 +18°C° 0 mm 2 mps 741 mmHg 93%
    06:00 +19°C° 0 mm 2 mps 741 mmHg 87%
    07:00 +21°C° 0 mm 2 mps 742 mmHg 80%
    08:00 +23°C° 0 mm 2 mps 742 mmHg 74%
    09:00 +25°C° 0 mm 2 mps 742 mmHg 69%
    10:00 +26°C° 0 mm 2 mps 742 mmHg 63%
    11:00 +27°C° 0 mm 3 mps 742 mmHg 57%
    12:00 +27°C° 0,1 mm 3 mps 742 mmHg 56%
    13:00 +27°C° 0,1 mm 3 mps 742 mmHg 55%
    14:00 +28°C° 0,1 mm 2 mps 742 mmHg 54%
    15:00 +27°C° 0,6 mm 2 mps 742 mmHg 60%
    16:00 +26°C° 0,6 mm 2 mps 742 mmHg 65%
    17:00 +25°C° 0,6 mm 2 mps 742 mmHg 71%
    18:00 +24°C° 0,2 mm 2 mps 743 mmHg 76%
    19:00 +21°C° 0,2 mm 2 mps 743 mmHg 81%
    20:00 +20°C° 0,2 mm 2 mps 743 mmHg 86%
    21:00 +19°C° 0 mm 2 mps 743 mmHg 87%
    22:00 +19°C° 0 mm 2 mps 743 mmHg 89%
    23:00 +18°C° 0 mm 2 mps 743 mmHg 91%

    Mañana, 17 Agosto, Viernes

    Tiempo Temperatura Precipitaciones Viento Presión Humedad
    00:00 +18°C° 0 mm 3 mps 744 mmHg 92%
    01:00 +17°C° 0 mm 3 mps 744 mmHg 93%
    02:00 +17°C° 0 mm 3 mps 744 mmHg 95%
    03:00 +16°C° 0 mm 3 mps 744 mmHg 95%
    04:00 +16°C° 0 mm 3 mps 745 mmHg 95%
    05:00 +16°C° 0 mm 3 mps 745 mmHg 95%
    06:00 +17°C° 0 mm 4 mps 745 mmHg 90%
    07:00 +18°C° 0 mm 4 mps 745 mmHg 85%
    08:00 +19°C° 0 mm 4 mps 746 mmHg 80%
    09:00 +20°C° 0 mm 4 mps 746 mmHg 74%
    10:00 +21°C° 0 mm 5 mps 746 mmHg 68%
    11:00 +23°C° 0 mm 5 mps 746 mmHg 63%
    12:00 +23°C° 0 mm 5 mps 746 mmHg 61%
    13:00 +25°C° 0 mm 5 mps 745 mmHg 59%
    14:00 +25°C° 0 mm 5 mps 745 mmHg 56%
    15:00 +25°C° 0 mm 4 mps 745 mmHg 59%
    16:00 +23°C° 0 mm 4 mps 745 mmHg 61%
    17:00 +24°C° 0 mm 3 mps 745 mmHg 63%
    18:00 +21°C° 0 mm 3 mps 745 mmHg 66%
    19:00 +20°C° 0 mm 3 mps 745 mmHg 70%
    20:00 +18°C° 0 mm 3 mps 746 mmHg 73%
    21:00 +18°C° 0 mm 3 mps 746 mmHg 73%
    22:00 +17°C° 0 mm 3 mps 746 mmHg 74%
    23:00 +17°C° 0 mm 3 mps 746 mmHg 75%

    Pasado mañana, 18 Agosto, Sábado

    Tiempo Temperatura Precipitaciones Viento Presión Humedad
    00:00 +16°C° 0 mm 3 mps 746 mmHg 77%
    01:00 +16°C° 0 mm 2 mps 746 mmHg 78%
    02:00 +15°C° 0 mm 2 mps 746 mmHg 80%
    03:00 +15°C° 0 mm 2 mps 746 mmHg 82%
    04:00 +15°C° 0 mm 2 mps 746 mmHg 84%
    05:00 +15°C° 0 mm 2 mps 746 mmHg 86%
    06:00 +16°C° 0 mm 3 mps 747 mmHg 80%
    07:00 +18°C° 0 mm 3 mps 747 mmHg 74%
    08:00 +20°C° 0 mm 3 mps 747 mmHg 68%
    09:00 +21°C° 0 mm 4 mps 747 mmHg 63%
    10:00 +22°C° 0 mm 4 mps 747 mmHg 59%
    11:00 +23°C° 0 mm 4 mps 747 mmHg 54%
    12:00 +23°C° 0 mm 4 mps 747 mmHg 53%
    13:00 +25°C° 0 mm 4 mps 747 mmHg 51%
    14:00 +25°C° 0 mm 4 mps 747 mmHg 50%
    15:00 +25°C° 0 mm 3 mps 746 mmHg 53%
    16:00 +24°C° 0 mm 3 mps 746 mmHg 56%
    17:00 +24°C° 0 mm 2 mps 746 mmHg 60%
    18:00 +21°C° 0 mm 2 mps 746 mmHg 62%
    19:00 +20°C° 0 mm 2 mps 746 mmHg 65%
    20:00 +18°C° 0 mm 2 mps 746 mmHg 68%
    21:00 +17°C° 0 mm 2 mps 746 mmHg 69%
    22:00 +17°C° 0 mm 2 mps 747 mmHg 70%
    23:00 +16°C° 0 mm 2 mps 747 mmHg 71%

    19 Agosto, Domingo

    Tiempo Temperatura Precipitaciones Viento Presión Humedad
    00:00 +16°C° 0 mm 2 mps 747 mmHg 72%
    01:00 +16°C° 0 mm 2 mps 747 mmHg 73%
    02:00 +15°C° 0 mm 2 mps 747 mmHg 74%
    03:00 +15°C° 0 mm 2 mps 747 mmHg 76%
    04:00 +15°C° 0 mm 2 mps 747 mmHg 77%
    05:00 +15°C° 0 mm 2 mps 747 mmHg 79%
    06:00 +16°C° 0 mm 2 mps 747 mmHg 74%
    07:00 +18°C° 0 mm 3 mps 747 mmHg 69%
    08:00 +20°C° 0 mm 3 mps 747 mmHg 64%
    09:00 +21°C° 0 mm 3 mps 747 mmHg 60%
    10:00 +22°C° 0 mm 3 mps 747 mmHg 56%
    11:00 +23°C° 0 mm 4 mps 746 mmHg 51%
    12:00 +25°C° 0 mm 4 mps 746 mmHg 50%
    13:00 +25°C° 0 mm 4 mps 746 mmHg 49%
    14:00 +25°C° 0 mm 4 mps 745 mmHg 49%
    15:00 +25°C° 0 mm 3 mps 745 mmHg 52%
    16:00 +25°C° 0 mm 3 mps 745 mmHg 56%
    17:00 +24°C° 0 mm 2 mps 745 mmHg 59%
    18:00 +23°C° 0 mm 2 mps 745 mmHg 62%
    19:00 +20°C° 0 mm 2 mps 745 mmHg 64%
    20:00 +18°C° 0 mm 2 mps 744 mmHg 67%
    21:00 +18°C° 0 mm 3 mps 744 mmHg 67%
    22:00 +18°C° 0 mm 3 mps 744 mmHg 67%
    23:00 +17°C° 0 mm 3 mps 744 mmHg 68%

    20 Agosto, Lunes

    Tiempo Temperatura Precipitaciones Viento Presión Humedad
    00:00 +17°C° 0 mm 3 mps 744 mmHg 68%
    01:00 +16°C° 0 mm 3 mps 744 mmHg 68%
    02:00 +16°C° 0 mm 3 mps 744 mmHg 69%
    03:00 +16°C° 0 mm 3 mps 744 mmHg 69%
    04:00 +16°C° 0 mm 3 mps 744 mmHg 70%
    05:00 +16°C° 0 mm 3 mps 744 mmHg 71%
    06:00 +17°C° 0 mm 3 mps 744 mmHg 68%
    07:00 +19°C° 0 mm 3 mps 744 mmHg 66%
    08:00 +20°C° 0 mm 4 mps 744 mmHg 64%
    09:00 +21°C° 0 mm 4 mps 744 mmHg 59%
    10:00 +23°C° 0 mm 4 mps 744 mmHg 55%
    11:00 +25°C° 0 mm 4 mps 744 mmHg 51%
    12:00 +26°C° 0 mm 4 mps 744 mmHg 51%
    13:00 +26°C° 0 mm 4 mps 743 mmHg 50%
    14:00 +26°C° 0 mm 5 mps 743 mmHg 50%
    15:00 +26°C° 0 mm 4 mps 743 mmHg 53%
    16:00 +25°C° 0 mm 3 mps 743 mmHg 57%
    17:00 +25°C° 0 mm 3 mps 743 mmHg 61%
    18:00 +24°C° 0,1 mm 3 mps 743 mmHg 64%
    19:00 +21°C° 0,1 mm 3 mps 743 mmHg 68%
    20:00 +20°C° 0,1 mm 3 mps 743 mmHg 71%
    21:00 +19°C° 0,1 mm 3 mps 743 mmHg 72%
    22:00 +19°C° 0,1 mm 3 mps 743 mmHg 72%
    23:00 +18°C° 0,1 mm 3 mps 743 mmHg 73%

    21 Agosto, Martes

    Tiempo Temperatura Precipitaciones Viento Presión Humedad
    00:00 +18°C° 0,1 mm 3 mps 743 mmHg 75%
    01:00 +17°C° 0,1 mm 3 mps 743 mmHg 77%
    02:00 +17°C° 0,1 mm 3 mps 743 mmHg 79%
    03:00 +17°C° 0,1 mm 3 mps 743 mmHg 81%
    04:00 +16°C° 0,1 mm 3 mps 743 mmHg 84%
    05:00 +16°C° 0,1 mm 2 mps 743 mmHg 86%
    06:00 +18°C° 0 mm 3 mps 743 mmHg 83%
    07:00 +19°C° 0 mm 3 mps 743 mmHg 80%
    08:00 +21°C° 0 mm 3 mps 743 mmHg 77%
    09:00 +22°C° 0 mm 3 mps 743 mmHg 72%
    10:00 +25°C° 0 mm 3 mps 743 mmHg 66%
    11:00 +26°C° 0 mm 3 mps 743 mmHg 60%
    12:00 +26°C° 0 mm 4 mps 743 mmHg 59%
    13:00 +27°C° 0 mm 4 mps 743 mmHg 57%
    14:00 +27°C° 0 mm 4 mps 742 mmHg 56%
    15:00 +27°C° 0 mm 3 mps 742 mmHg 59%
    16:00 +26°C° 0 mm 3 mps 742 mmHg 62%
    17:00 +26°C° 0 mm 2 mps 742 mmHg 65%
    18:00 +24°C° 0 mm 2 mps 742 mmHg 69%
    19:00 +23°C° 0 mm 2 mps 742 mmHg 74%
    20:00 +20°C° 0 mm 2 mps 742 mmHg 78%
    21:00 +20°C° 0 mm 3 mps 742 mmHg 80%
    22:00 +19°C° 0 mm 3 mps 742 mmHg 82%
    23:00 +19°C° 0 mm 3 mps 742 mmHg 84%
    Mostrar más